Cloud_Cover
4 0 0 0 0 0 0 0 0 0 0 0 0 3 36 31 99 21 1 0 0 0 0 3 8 2 5 5 5 6 5 5 5 7 19 96 87 50 89 99 100 100 100
0 0 0 0 0 0 0 1 0 0 0 0 0 0 5 5 33 35 68 11 12 5 5 46 28 27 32 97 28 25 8 5 10 15 6 7 61 93 52 74 100 100 100
0 92 0 0 0 0 0 0 0 0 0 0 0 0 0 4 3 12 14 37 36 20 18 99 100 100 65 5 5 5 45 100 98 19 61 51 39 22 100 100 100 100 100
0 0 23 0 0 0 0 0 0 0 0 0 0 0 0 0 3 5 9 11 65 68 86 100 99 92 88 9 10 6 58 7 32 97 95 40 96 98 100 100 100 100 100
0 0 0 0 0 0 0 0 0 0 0 0 0 0 0 0 0 0 4 5 5 8 51 69 9 5 5 18 5 5 6 36 7 59 100 100 100 100 100 100 55 90 81
0 0 0 0 0 0 0 0 0 0 0 0 0 0 0 0 0 0 0 3 3 2 5 29 26 14 7 8 5 47 45 46 66 24 34 95 100 100 86 68 18 78 45
0 0 0 0 0 0 0 0 0 0 0 0 0 0 0 0 0 0 0 0 0 0 0 5 5 5 50 14 52 12 6 31 21 60 49 58 6 5 58 5 32 100 100
0 0 0 0 26 0 0 0 0 0 0 0 0 0 0 0 0 0 0 0 0 0 0 0 4 5 5 12 5 27 68 82 45 26 25 35 69 97 60 100 100 100 100
0 0 0 0 0 0 0 0 0 0 0 0 0 0 0 0 0 0 0 0 0 0 0 0 2 3 1 2 4 5 5 65 10 98 100 100 100 100 100 68 91 100 100
0 0 0 0 0 0 0 0 0 0 0 0 0 0 0 1 0 0 0 0 0 0 0 0 0 0 0 0 0 0 3 5 61 100 100 100 100 100 15 100 61 100 100
3 0 1 4 0 0 0 0 0 40 1 0 0 0 0 6 0 0 0 0 0 0 0 0 0 0 0 0 1 6 95 100 100 79 100 100 99 46 100 99 88 100 100
1 0 0 3 0 0 0 0 0 0 0 0 0 0 0 46 0 0 0 0 0 0 0 0 0 0 4 5 34 86 100 49 98 69 97 100 100 100 68 87 96 85 100
0 0 0 3 0 0 0 0 0 0 0 0 0 0 0 2 0 0 0 0 0 0 0 0 0 0 0 0 0 4 32 5 10 6 9 22 6 5 12 15 5 45 100
0 0 0 0 0 0 0 0 0 0 0 0 3 0 0 0 0 0 0 0 0 0 0 0 0 0 4 5 5 5 13 5 6 10 86 94 95 59 5 63 48 5 64
0 0 0 0 0 0 0 0 0 0 0 0 0 0 0 0 0 0 0 0 0 0 0 0 0 0 4 4 4 5 6 7 77 100 55 36 5 34 22 5 5 5 52
0 0 0 0 0 2 5 5 0 0 0 0 0 0 0 5 5 0 0 0 0 0 0 0 0 0 0 0 0 0 0 0 1 3 0 0 0 0 2 4 1 0 3
0 0 0 0 0 0 0 0 0 0 0 0 0 0 0 5 5 4 0 0 0 0 0 0 0 0 0 0 0 0 0 0 0 0 0 0 0 1 5 5 5 5 5
0 0 0 0 0 1 0 0 4 0 0 0 0 0 1 5 5 4 0 0 0 0 0 0 0 0 0 0 0 0 0 0 0 0 0 0 1 5 18 88 99 88 40
0 0 0 0 0 0 0 0 0 2 0 0 0 0 0 3 6 5 5 0 4 0 0 0 0 0 0 0 0 1 0 0 4 5 5 5 8 97 100 100 100 84 88
0 0 0 0 0 0 0 0 0 0 0 0 0 0 0 2 4 5 5 3 5 0 0 5 5 0 3 1 0 4 3 0 0 4 72 97 100 86 100 100 100 99 70
0 0 0 0 0 0 0 0 0 0 0 0 0 0 0 0 0 5 5 2 5 5 5 2 7 30 57 5 5 5 5 4 4 5 5 63 97 82 72 100 70 100 100
0 0 0 0 0 0 0 0 0 0 0 0 0 0 0 0 16 2 0 0 5 1 5 5 93 5 11 68 26 4 5 5 5 47 66 79 16 20 100 98 19 97 100
0 0 0 0 0 0 0 0 0 0 0 0 0 0 0 0 0 0 16 25 36 6 9 5 5 19 16 6 5 5 5 21 9 75 97 96 93 81 23 28 76 100 100
0 0 0 0 0 0 0 0 0 0 0 0 0 0 0 0 0 0 0 0 0 4 2 5 5 5 5 5 1 12 32 24 8 32 19 66 80 100 70 52 27 92 14
0 0 0 0 0 0 0 0 5 0 0 0 0 0 0 0 0 0 0 0 0 0 3 3 5 5 5 5 56 9 5 5 5 4 5 58 10 72 3 5 8 7 50
28 3 0 0 0 0 0 0 9 0 0 0 0 0 0 0 0 0 0 0 0 0 0 5 1 36 58 5 42 9 17 4 5 5 5 4 20 15 68 8 23 5 14